Wind_Speed
9 9 9 9 9 9 9 9 10 11 12 13 13 13 13 13 13 12 12 11 11 12 12 11 10 10 10 11 12 13 13 13 12 12 13 14 13 11 10 10 9 6 6 8 12 15 17 17 16 14 12 11 9 6 5 6 7 1 5 8 10 12 12 4 13 23 23 25 27 27 29 30 30 28 25 24 20 17 17 17 16 14 14 21 25 27 28 26
9 9 9 9 9 9 9 9 9 10 11 12 13 13 13 13 13 13 13 12 11 11 12 12 11 10 9 10 11 12 13 13 12 12 12 13 13 12 12 11 9 6 6 8 11 15 16 17 16 13 12 12 11 9 7 6 4 2 5 8 8 11 9 7 17 21 23 25 24 24 28 31 30 28 26 24 22 20 20 19 16 17 23 26 25 27 27 25
9 10 10 10 10 10 9 9 9 9 10 11 12 13 13 13 13 13 14 14 12 12 12 12 11 10 9 8 9 11 12 12 12 13 13 13 13 14 13 12 10 8 8 8 12 16 16 17 16 14 14 15 13 12 10 5 1 3 5 7 6 9 6 9 16 18 21 23 23 23 25 29 28 27 26 25 23 21 19 19 18 21 27 28 27 26 25 24
9 9 10 11 11 10 10 9 9 9 9 10 11 12 12 13 13 13 14 14 13 12 13 13 12 11 10 8 8 9 11 11 12 13 13 13 14 15 14 13 12 10 9 8 13 19 20 20 20 18 16 16 14 11 10 6 2 3 5 5 4 6 4 10 17 17 19 23 23 23 25 28 29 28 26 25 24 23 19 16 15 18 24 27 27 25 24 24
8 8 9 10 11 11 11 10 9 9 9 9 10 10 11 12 13 14 14 14 14 13 13 13 12 11 10 9 8 8 9 9 10 13 13 14 15 15 15 15 14 12 10 8 13 19 22 22 23 23 19 17 14 9 7 5 4 6 6 2 3 5 3 10 17 16 18 23 24 24 25 27 31 29 27 23 21 23 19 13 10 13 20 25 25 25 25 23
8 7 8 8 9 11 11 11 10 9 9 9 9 9 9 10 11 13 14 14 14 13 13 14 13 12 10 9 9 7 7 7 8 10 12 14 15 15 15 16 16 14 10 8 11 17 21 22 25 25 20 17 14 10 5 4 6 8 7 2 2 3 5 9 15 17 17 22 23 24 25 26 27 25 25 22 19 21 18 12 9 11 19 22 24 25 25 24
8 8 8 8 9 10 10 11 11 11 10 10 9 9 8 9 10 12 13 13 13 13 13 13 13 13 11 10 9 7 7 8 7 8 11 14 16 16 16 16 16 14 11 8 9 16 22 23 24 23 20 17 15 11 6 5 7 7 7 4 1 1 5 9 13 17 18 21 22 23 24 24 22 23 25 23 23 23 18 14 10 11 19 21 22 24 24 24
8 8 8 8 9 9 10 10 11 12 11 11 10 9 8 8 9 10 12 12 13 13 13 13 13 13 11 10 9 7 8 10 9 8 10 14 16 17 17 16 16 14 12 8 8 16 22 23 23 22 19 17 14 9 5 7 7 7 7 5 3 3 5 10 14 17 20 21 22 23 25 22 21 26 27 23 24 23 19 18 12 11 18 19 21 23 23 22
9 9 8 9 9 10 10 10 10 11 12 12 12 10 9 8 8 9 10 11 12 12 13 13 12 13 12 10 9 8 9 10 11 10 9 11 15 17 17 16 15 15 14 10 9 16 21 22 22 21 18 14 11 7 5 9 9 8 7 5 3 7 6 10 15 17 21 22 23 25 25 22 21 27 27 23 24 22 21 22 15 13 17 18 19 21 22 22
10 9 9 9 10 10 10 10 10 10 11 12 12 11 10 9 9 9 9 10 10 11 12 13 12 12 11 10 10 9 10 10 10 12 11 11 13 16 17 17 17 16 15 11 9 14 19 20 21 20 15 10 8 6 6 11 10 10 9 7 5 6 4 7 14 17 22 23 22 25 25 22 21 24 26 25 24 23 24 22 17 16 18 17 17 18 20 19
10 10 9 9 9 10 10 10 10 10 10 11 12 12 11 10 10 9 9 9 9 11 12 12 11 11 11 10 9 8 10 11 10 11 13 13 12 15 17 17 18 18 15 11 10 13 18 20 20 17 13 9 5 3 10 15 15 14 11 8 4 3 3 6 12 16 22 24 22 24 25 23 21 21 24 27 26 25 24 21 19 19 19 18 17 17 18 17
10 9 9 9 9 9 10 10 9 9 10 11 12 12 11 10 11 10 9 8 9 10 11 11 11 10 10 9 9 10 12 11 10 10 12 14 14 15 17 18 18 19 15 12 13 18 21 20 18 15 11 9 5 1 5 9 14 16 9 7 5 4 3 5 10 14 19 24 25 26 26 23 22 22 24 28 26 25 23 20 20 21 20 19 17 17 17 17
10 9 9 9 9 9 9 9 9 9 9 11 12 12 11 11 11 10 9 8 9 9 10 11 10 10 10 9 10 13 14 10 9 10 11 12 14 14 17 19 20 20 16 13 17 23 25 20 16 13 10 10 7 5 5 3 11 12 6 6 6 6 5 6 11 13 15 21 24 26 26 24 24 25 25 28 26 25 25 20 20 22 21 19 18 18 18 17
10 9 9 9 9 8 8 8 9 9 9 10 11 12 12 11 11 10 9 8 8 9 10 10 10 10 10 10 12 13 14 11 10 10 10 10 14 15 17 21 22 22 19 16 20 26 25 19 16 14 13 12 10 13 7 3 12 11 7 6 5 7 8 9 12 12 14 20 22 23 25 24 26 28 27 28 26 24 24 20 19 21 21 20 19 19 19 18
11 10 10 9 9 8 8 8 8 8 9 10 11 11 12 11 11 9 9 8 8 8 8 8 8 9 10 11 13 12 12 10 9 10 9 10 13 16 19 22 23 23 19 18 23 28 25 19 17 16 18 17 14 17 9 5 14 12 7 8 8 9 7 10 12 11 15 19 21 21 24 27 30 31 28 28 28 26 24 18 17 20 20 20 21 20 19 18
14 12 11 10 9 8 7 6 6 6 7 9 11 11 12 11 10 8 8 6 7 7 7 7 6 7 9 11 13 12 12 10 8 9 10 11 13 16 19 22 23 23 21 23 28 31 27 22 20 20 23 20 16 18 12 9 15 14 9 9 13 14 10 11 12 12 14 17 20 19 23 29 30 31 30 28 28 29 26 19 15 18 18 18 21 21 19 20
15 14 12 10 9 8 7 7 6 5 5 7 9 10 10 9 7 6 6 5 5 5 5 5 5 7 8 7 10 11 10 9 6 7 11 14 16 18 20 23 24 25 24 26 29 30 28 23 22 23 25 23 17 18 15 12 17 18 13 11 14 14 13 14 13 14 16 16 18 17 23 30 29 30 29 27 29 30 27 21 17 17 17 16 20 22 19 21
16 14 12 11 9 8 8 8 7 6 5 5 7 7 7 6 6 5 6 5 4 4 3 4 6 7 7 6 7 8 6 6 3 6 12 16 19 21 20 22 25 27 27 27 27 27 27 24 23 23 25 25 20 20 20 17 20 22 18 14 16 16 15 13 10 13 14 15 20 18 22 28 28 31 29 27 31 31 28 25 21 18 18 16 19 23 20 21
15 13 12 10 9 9 9 9 8 7 4 4 5 4 6 7 7 7 7 6 4 4 4 7 10 10 10 9 9 7 6 6 6 9 14 17 21 21 17 22 26 27 28 27 24 23 23 24 24 24 28 27 24 25 23 18 15 17 17 14 15 17 15 12 9 10 11 13 21 22 22 27 30 33 33 31 32 32 31 30 26 22 20 19 20 25 22 21
14 12 11 10 10 10 9 8 8 7 4 3 3 5 6 6 6 8 9 7 6 8 8 11 15 16 12 10 11 11 7 7 10 12 15 16 18 17 14 22 26 25 26 25 22 19 18 22 26 28 31 29 26 26 22 17 12 10 13 14 15 15 13 13 10 10 11 13 20 23 22 24 29 32 34 34 34 35 34 33 31 28 25 22 21 25 24 22
13 11 10 10 10 9 8 7 7 6 4 2 5 8 7 6 5 8 9 8 8 11 11 13 18 17 13 11 13 15 10 7 11 13 14 16 16 15 16 21 24 25 25 22 19 17 17 20 25 27 30 29 27 25 20 17 13 9 10 12 16 16 13 13 12 13 16 16 18 23 23 22 27 32 35 36 35 36 37 34 31 30 29 24 22 24 24 24
12 11 10 10 10 8 6 5 6 6 4 3 5 6 6 6 6 9 11 5 6 10 12 15 18 16 14 13 12 15 14 10 11 13 16 19 18 18 19 19 22 24 22 20 17 16 18 20 19 19 26 31 27 22 18 15 14 12 12 14 16 20 15 14 13 13 16 16 17 22 24 22 25 32 37 39 38 37 38 36 30 30 32 27 23 23 23 27
10 10 10 10 9 6 4 4 6 6 7 6 2 1 3 5 6 11 13 7 5 7 9 14 17 17 16 13 9 12 15 12 11 14 19 19 17 19 19 17 21 22 20 22 20 16 18 20 17 13 21 32 30 23 16 14 15 15 16 15 18 25 20 17 18 13 12 13 13 18 22 20 22 29 36 39 40 40 40 38 32 31 33 28 26 24 24 28
10 9 9 9 7 4 2 4 5 7 8 8 6 5 4 3 6 9 10 8 5 3 5 12 17 18 13 9 7 11 13 12 9 14 21 19 16 17 16 15 18 19 19 23 22 18 19 16 13 12 18 29 33 27 18 16 16 16 17 16 20 29 23 16 16 14 13 12 10 14 16 15 18 25 33 39 41 40 40 40 35 33 33 29 28 27 26 27
9 9 9 8 6 2 1 2 4 6 6 6 5 4 6 4 4 4 4 5 2 2 5 13 18 15 10 10 11 13 11 11 9 11 18 18 17 16 14 13 15 15 17 21 20 19 18 13 11 13 17 23 28 28 22 17 16 14 13 15 19 28 23 14 14 19 19 14 13 15 8 8 15 20 29 37 40 40 40 41 38 35 35 32 29 29 28 26
8 8 9 7 5 2 1 3 2 2 3 3 1 2 4 5 5 5 4 5 3 5 6 13 16 10 8 12 16 15 8 9 11 10 11 14 18 17 15 14 13 12 15 17 16 17 16 14 12 14 15 18 22 24 24 19 17 15 10 12 18 25 23 16 16 20 18 12 17 16 5 5 12 14 24 34 36 39 40 40 39 38 36 34 31 30 29 27
7 8 8 6 4 1 3 4 3 2 1 5 5 4 7 6 5 5 4 3 3 6 5 12 15 8 7 13 16 14 8 8 12 12 10 10 16 19 17 16 13 11 13 13 14 17 16 15 14 14 16 18 20 23 23 19 21 17 9 10 20 26 22 16 15 17 11 10 20 17 5 6 10 10 20 30 33 37 40 38 36 37 37 35 33 31 31 28
7 7 7 6 4 1 3 4 4 4 2 3 4 4 6 3 2 4 3 2 4 5 3 7 13 8 7 12 15 12 6 6 12 14 10 8 15 19 18 18 15 14 14 13 17 16 14 17 19 17 17 18 20 22 20 17 20 17 10 11 20 23 19 18 19 18 10 12 22 19 9 7 8 10 16 24 30 33 38 38 36 36 35 35 35 34 32 30
6 6 6 5 4 2 3 4 5 6 3 2 2 3 4 3 2 4 3 2 4 4 1 5 8 6 6 13 17 14 9 5 8 11 10 9 16 20 18 18 17 15 13 15 19 17 14 16 17 18 19 20 20 21 19 17 17 14 9 12 16 16 20 21 19 18 11 10 18 21 17 8 6 13 16 20 28 31 34 38 37 35 33 34 36 35 33 33
6 5 5 5 5 4 3 4 6 5 1 5 6 6 6 5 3 4 3 2 4 3 3 6 7 5 7 14 17 16 14 7 5 11 14 11 15 21 20 17 14 12 11 15 21 22 19 16 14 17 19 18 18 18 16 16 15 14 15 18 16 18 24 21 16 15 9 6 16 22 22 12 5 14 20 19 25 30 33 35 34 32 34 37 37 35 34 34
5 5 5 5 6 5 4 4 5 5 7 9 9 8 8 6 4 2 1 2 1 1 3 5 6 7 8 13 15 15 14 9 7 15 18 12 14 20 20 17 12 10 10 16 22 22 21 17 15 19 20 17 17 17 15 16 16 17 18 18 17 20 20 16 13 12 6 6 16 22 24 16 6 11 19 16 16 23 29 32 31 30 34 40 39 36 36 34
4 4 5 6 6 6 6 9 11 11 10 9 8 8 8 5 4 3 2 1 2 5 5 4 5 8 9 10 14 14 11 9 10 19 19 13 13 17 18 16 12 8 9 16 20 18 18 18 15 18 22 19 17 18 18 18 20 18 16 15 13 12 9 8 7 7 6 7 11 22 26 11 3 9 14 13 14 19 22 26 29 28 31 38 39 37 37 36
4 4 6 7 8 9 10 13 13 12 11 8 6 6 7 4 3 5 5 2 3 8 2 6 6 9 10 10 13 14 11 8 12 19 18 12 11 11 14 15 12 9 9 12 13 12 13 16 16 19 22 19 17 20 22 20 22 21 16 13 11 9 3 3 5 5 5 2 6 26 26 8 5 10 12 14 16 18 19 21 26 28 30 36 38 38 39 37
5 6 7 7 8 9 11 14 13 11 10 8 8 9 8 5 6 8 8 6 9 13 3 8 6 10 14 12 12 12 10 9 13 18 16 12 11 10 12 14 15 14 11 9 8 9 9 11 15 19 18 18 19 22 23 19 18 19 14 12 13 14 8 6 7 5 5 8 12 20 16 8 10 13 13 16 17 17 19 20 23 26 28 33 37 39 40 38
6 6 7 7 8 8 9 10 8 8 7 7 9 13 11 8 9 10 10 10 12 15 4 7 7 11 13 13 12 10 10 12 14 16 16 14 9 8 14 16 16 16 14 10 7 6 9 11 13 14 13 16 19 18 20 16 13 14 13 11 11 13 11 10 10 11 14 13 7 6 7 11 17 15 13 15 16 17 17 17 21 24 26 31 37 40 41 40
8 8 8 7 8 9 9 7 5 4 3 5 10 13 12 10 9 9 12 12 13 12 5 6 7 8 9 12 11 10 12 14 14 13 14 14 8 6 11 9 10 14 13 13 9 5 10 13 14 15 14 18 19 16 17 13 9 13 14 12 11 10 7 5 7 15 18 11 3 4 8 13 16 14 12 14 16 17 15 17 21 24 27 31 37 42 43 42
9 9 10 8 8 9 9 7 5 2 3 5 9 11 11 9 8 12 13 10 10 10 5 6 4 4 7 10 6 6 12 12 11 14 14 11 5 3 6 7 5 9 10 11 9 5 9 12 15 17 15 18 18 15 15 11 6 9 11 12 13 10 6 3 6 11 9 4 2 6 11 14 12 10 13 15 16 17 17 17 20 23 27 30 34 39 41 42
9 9 11 11 10 10 11 8 5 3 4 5 8 10 12 11 9 12 10 4 9 10 8 9 5 4 6 8 5 6 7 2 3 6 11 9 7 8 10 10 8 10 11 10 8 6 7 9 14 17 14 14 16 16 16 14 8 6 9 9 8 7 5 4 5 6 4 3 3 5 8 11 11 12 17 17 16 19 18 17 17 20 25 29 31 34 36 39
12 10 9 12 11 10 10 9 6 4 5 7 9 10 13 11 8 11 8 3 8 11 10 9 5 4 7 8 10 15 14 12 13 11 9 7 7 8 8 8 9 10 8 7 8 6 5 7 10 14 15 14 16 18 18 18 13 8 10 8 4 5 4 3 3 7 9 6 3 4 2 5 12 17 19 18 17 20 19 18 19 18 21 26 30 32 34 36
13 10 8 10 8 5 7 9 9 8 7 7 8 9 10 9 8 8 7 3 6 9 7 7 6 5 5 5 8 17 22 15 10 13 13 8 6 4 3 6 8 7 6 7 7 5 5 8 8 9 14 14 16 18 18 18 15 10 9 9 6 5 6 6 4 4 11 9 4 3 1 5 17 20 18 19 18 20 21 20 20 20 22 25 28 32 34 34
12 11 7 6 4 2 5 6 8 10 7 4 8 8 6 8 10 8 5 4 5 6 5 4 6 5 2 3 4 12 21 16 6 6 4 2 6 6 3 3 2 2 5 7 6 5 6 6 7 8 13 13 13 14 14 14 14 12 10 7 5 7 8 7 3 2 11 14 14 11 4 9 22 22 19 19 16 16 17 17 18 19 21 22 24 26 27 29
13 12 8 5 4 1 4 5 5 8 8 6 7 4 6 7 10 6 4 6 6 6 8 8 6 7 5 2 3 7 14 14 7 4 1 6 5 7 8 8 7 3 2 4 5 7 6 5 7 8 11 11 10 10 10 9 12 14 12 5 2 4 7 7 5 8 12 14 19 18 9 11 22 22 20 18 12 10 9 10 14 15 16 17 20 22 22 24
12 12 9 5 4 2 1 2 4 6 5 3 3 3 5 6 6 5 4 6 5 2 5 10 8 9 6 2 6 8 8 7 5 5 3 3 6 9 12 11 9 5 1 2 4 6 3 3 4 7 9 12 13 11 9 8 9 12 12 4 2 2 5 4 7 15 16 15 21 16 7 12 23 19 19 18 11 8 6 6 11 13 16 19 20 22 23 23
11 11 8 6 6 5 3 3 5 6 3 2 3 2 3 4 4 7 8 7 6 2 3 8 6 6 3 9 10 7 3 3 4 3 2 2 4 7 11 12 10 4 3 3 4 7 2 6 2 5 7 7 9 8 6 8 10 9 7 3 2 3 6 5 9 16 13 14 22 15 7 17 25 19 18 17 12 10 7 6 9 12 17 20 20 20 22 24
9 10 8 4 7 7 2 3 3 6 5 2 3 1 1 3 3 5 7 6 6 5 5 7 6 4 9 12 7 3 3 6 7 6 3 1 2 5 5 5 4 1 4 4 5 7 6 9 7 8 9 6 4 3 2 5 10 8 5 3 2 5 6 7 13 16 11 13 20 19 18 25 27 22 20 18 14 12 8 6 7 10 16 20 21 20 20 22
9 11 8 4 5 7 2 3 1 4 5 1 3 2 2 3 2 2 5 5 7 7 5 7 9 9 11 8 2 4 10 9 7 6 3 2 3 3 2 2 2 4 7 6 6 7 9 12 13 14 15 13 11 11 7 5 6 7 9 6 4 6 8 9 12 14 17 20 19 22 31 34 28 25 23 19 16 14 10 6 7 9 14 19 23 24 23 22
10 11 8 6 6 6 2 5 2 4 2 1 2 5 4 1 0 3 3 2 3 4 4 7 7 5 6 6 6 9 12 10 8 8 6 6 7 8 9 7 2 4 8 9 8 6 8 11 10 10 13 13 13 16 14 12 12 12 12 10 9 11 12 12 12 14 22 24 18 25 37 36 31 28 25 21 17 14 10 6 5 8 11 15 21 24 26 25
9 9 7 7 7 6 4 6 5 4 4 5 3 4 2 1 2 4 3 2 2 2 4 5 4 2 2 6 8 9 9 9 10 9 7 7 7 7 7 6 2 5 8 10 10 8 8 10 9 7 10 11 11 17 18 17 20 21 16 13 11 11 11 11 14 16 18 17 21 33 38 35 33 30 23 19 15 13 11 8 6 8 9 12 17 21 24 27
8 9 7 6 7 7 5 4 4 4 5 7 6 6 5 5 7 5 4 5 6 3 5 5 2 2 4 6 8 9 9 9 9 7 5 5 5 5 5 5 3 1 6 10 10 9 8 9 8 7 11 13 10 12 16 15 18 23 22 17 14 14 13 13 15 14 8 11 25 38 38 33 31 27 22 18 14 13 14 12 10 12 11 11 15 17 19 21
6 7 8 7 9 10 6 3 2 2 3 6 7 7 7 9 9 5 5 8 8 4 3 3 2 6 7 8 11 11 9 8 8 6 4 5 6 7 5 6 6 3 4 10 10 7 6 6 7 8 11 12 9 9 14 13 13 17 18 17 16 16 15 15 16 12 10 21 33 36 35 32 28 24 22 19 16 15 14 13 14 16 16 13 12 14 17 17
7 7 8 9 9 8 4 2 2 3 6 7 6 6 8 9 8 6 6 9 11 7 6 6 8 13 13 11 14 15 10 7 8 6 1 2 7 7 4 3 3 5 3 8 12 6 2 3 5 7 10 9 8 9 9 7 9 13 14 15 14 12 10 13 13 8 13 30 39 36 33 33 29 26 24 21 19 17 13 11 11 13 15 14 11 11 14 15
9 9 9 9 9 8 5 2 3 5 7 7 6 7 8 7 6 7 7 8 8 8 9 9 8 9 9 11 15 16 14 12 11 8 4 3 5 6 3 1 2 4 7 5 11 10 4 3 4 6 8 8 7 7 6 5 6 7 7 8 10 10 11 14 13 9 11 23 32 33 33 33 32 30 27 24 20 17 14 11 6 7 10 13 14 13 13 13
Wind_Direction
322 318 313 308 305 301 295 288 285 284 283 280 277 275 273 271 268 265 261 258 259 263 269 272 270 263 251 242 236 232 232 230 229 223 218 218 216 214 205 202 211 212 205 193 189 183 177 179 178 181 186 180 169 139 133 110 94 9 328 340 347 354 355 37 143 151 154 158 164 165 160 159 156 154 151 147 143 129 132 150 162 169 167 158 149 145 146 147
325 322 318 314 312 309 305 299 291 285 283 282 279 276 274 272 270 267 264 260 255 256 260 263 268 267 260 249 239 234 230 227 225 218 215 215 209 209 210 206 208 208 205 191 183 177 174 179 174 173 168 159 149 123 117 109 89 343 338 348 358 357 2 112 147 151 153 160 168 168 159 158 158 154 151 147 147 147 148 155 165 167 159 155 153 149 148 148
326 325 321 319 317 315 312 308 302 293 285 282 281 280 276 273 271 269 266 262 258 256 255 255 259 262 264 258 243 235 230 225 219 214 212 209 202 203 207 205 203 205 205 192 178 168 170 175 165 161 157 144 134 120 125 133 33 318 335 343 3 360 8 133 151 150 152 163 169 170 165 161 158 153 153 151 151 157 161 163 168 168 163 158 156 153 149 148
329 327 323 320 318 317 316 313 309 302 294 288 284 282 280 277 274 271 268 264 261 259 257 254 252 254 258 259 251 237 229 224 217 211 207 205 202 198 200 200 199 206 207 191 180 170 171 173 161 158 158 141 127 122 136 153 233 286 323 340 27 17 28 142 156 155 156 165 166 168 168 160 155 154 158 158 154 161 173 176 171 170 168 161 156 154 150 148
326 324 321 318 316 316 316 314 313 309 304 298 291 287 284 280 276 273 269 266 263 260 260 257 252 249 249 251 253 240 229 224 219 212 203 201 200 195 196 195 196 207 207 193 189 179 174 173 163 159 155 140 132 128 139 163 221 264 303 338 78 50 82 145 159 164 163 167 169 166 164 157 156 160 162 164 161 165 176 175 172 178 171 162 156 154 152 151
323 319 313 310 309 309 309 310 311 311 309 305 300 294 288 282 277 274 269 266 264 260 259 259 256 250 244 242 245 242 224 211 213 210 203 199 195 194 194 192 195 204 209 199 195 184 175 173 167 161 149 138 137 133 138 195 237 264 296 313 106 93 130 152 162 168 169 173 175 167 163 160 159 160 158 164 168 169 172 157 152 173 170 163 158 156 154 154
327 321 313 306 302 300 300 301 302 303 305 304 304 301 296 287 276 273 270 267 263 261 259 257 256 252 245 238 235 237 215 198 197 194 197 196 191 193 192 192 193 199 207 199 194 184 177 179 172 158 141 133 134 131 148 209 242 263 284 291 250 144 140 164 170 168 171 175 177 171 167 164 159 153 152 164 173 172 169 157 151 163 168 166 159 157 156 156
332 325 318 310 303 299 296 295 295 295 297 298 299 303 304 294 280 273 270 267 263 260 258 255 255 253 247 240 231 222 209 200 191 174 182 192 190 189 190 192 188 193 202 191 188 180 182 188 173 149 132 126 132 138 173 213 239 257 267 284 248 191 163 176 179 170 171 173 175 171 164 162 158 154 154 166 176 175 172 171 179 175 170 167 159 158 158 157
328 322 316 310 305 301 298 297 294 292 291 291 293 296 300 300 289 279 270 267 263 258 256 253 251 250 247 243 230 213 209 211 201 183 175 187 191 188 187 189 182 187 194 187 185 178 185 189 161 137 124 122 135 152 212 228 244 259 249 262 200 190 187 186 188 177 171 170 173 171 161 159 160 157 159 165 170 173 174 178 194 191 175 169 160 160 161 162
324 318 312 307 301 299 299 300 299 295 291 289 289 289 293 296 294 288 277 267 260 256 253 251 248 248 245 240 233 216 213 218 210 200 189 185 189 188 187 183 178 184 190 189 183 174 181 174 144 132 134 141 152 160 233 239 250 259 236 233 203 188 192 193 200 187 171 167 170 172 164 160 161 162 167 168 166 171 175 180 195 191 176 172 166 164 166 165
324 318 314 309 300 296 295 296 297 296 292 288 287 286 287 288 291 293 287 272 259 254 249 248 245 243 240 236 233 222 217 214 207 206 202 195 186 187 188 181 178 180 185 184 163 154 164 154 137 141 147 161 177 209 259 256 251 247 236 240 229 174 175 192 203 194 173 163 166 174 168 160 160 165 171 171 168 172 176 178 185 183 175 175 172 169 170 165
325 323 320 315 308 301 295 293 291 289 287 284 283 283 283 283 286 289 290 280 262 252 246 244 240 235 233 229 221 215 217 212 200 198 200 200 191 186 184 179 177 175 180 179 151 148 156 148 147 156 154 172 195 269 264 250 234 229 231 245 232 166 175 184 189 196 181 167 168 173 164 155 159 162 164 167 169 170 173 175 177 178 175 174 174 173 174 167
328 327 323 319 313 307 300 293 288 283 278 277 277 279 280 280 282 285 288 284 269 254 244 238 232 228 220 209 204 210 217 205 186 186 183 190 191 185 179 176 174 168 173 171 153 156 159 155 163 173 176 192 197 139 132 178 201 204 199 220 217 170 164 167 178 194 193 179 174 169 157 151 160 162 160 166 172 169 169 176 176 175 175 174 173 175 175 170
330 327 323 318 311 307 301 294 287 279 271 269 270 273 277 277 279 283 286 286 277 259 244 234 228 223 209 200 201 213 223 199 173 178 166 169 183 179 176 178 173 167 170 166 158 163 163 165 178 184 190 199 180 150 142 196 192 192 182 180 178 161 156 153 169 189 198 187 178 172 161 155 160 161 161 165 169 169 170 176 175 175 176 174 173 177 175 171
331 329 324 317 311 306 302 297 291 282 272 263 260 263 268 272 275 282 287 287 281 266 249 234 226 217 206 200 199 213 232 210 176 179 158 153 176 175 178 182 174 167 166 162 165 169 170 175 185 188 189 193 180 162 154 174 187 199 194 168 158 169 174 156 160 181 199 190 177 174 166 158 160 163 164 163 165 171 174 176 174 174 174 172 175 175 168 168
330 330 327 323 319 316 313 312 308 299 284 266 258 254 257 266 271 278 286 285 281 272 254 233 215 208 205 201 200 210 230 225 194 181 160 150 167 174 179 181 170 162 160 167 174 177 178 180 184 186 184 187 185 176 170 167 189 211 214 187 174 185 197 176 165 170 190 195 182 175 166 161 162 165 167 164 167 174 177 180 179 176 172 171 175 168 161 168
330 332 332 332 331 332 333 332 329 319 302 277 262 254 252 258 261 268 277 277 275 268 253 223 192 186 188 190 201 210 230 238 211 174 160 154 162 169 177 178 167 159 163 176 183 183 184 183 185 186 184 186 185 182 180 173 187 200 211 208 189 193 197 183 179 173 180 195 190 179 169 168 166 164 168 168 169 173 177 183 185 182 179 175 174 167 163 170
331 334 337 340 341 344 343 342 340 327 307 286 276 261 243 233 229 239 254 258 262 260 238 182 166 168 164 150 174 202 233 237 212 168 159 158 160 161 172 176 166 163 172 182 186 187 189 188 190 190 188 187 183 183 182 173 181 191 200 205 192 197 203 196 196 182 178 187 191 188 176 176 173 167 170 174 172 171 175 183 188 190 187 182 177 173 172 172
331 337 340 343 345 349 347 348 344 335 316 285 275 245 218 209 212 229 246 246 237 226 200 171 159 148 145 136 141 171 196 183 179 168 157 160 160 152 163 175 169 171 179 186 188 190 193 194 195 194 191 188 182 183 180 168 173 191 204 211 199 198 203 208 208 186 180 180 188 195 184 180 183 176 171 175 174 169 173 181 189 196 193 189 182 179 180 178
333 340 342 346 348 351 353 354 349 346 334 283 224 204 198 190 209 239 247 238 217 198 185 171 156 135 127 130 134 146 160 160 165 162 151 155 159 150 160 175 174 178 186 189 190 191 194 197 201 197 190 185 182 185 182 170 166 183 208 219 215 212 204 198 193 182 185 183 187 196 192 184 188 185 175 174 175 170 172 179 188 195 193 194 189 184 186 185
335 342 345 348 350 355 359 359 359 3 10 148 177 190 184 176 221 262 254 231 215 205 188 167 156 142 132 133 135 141 151 165 165 161 148 151 163 164 174 180 179 185 190 188 187 190 195 199 204 202 193 184 184 189 187 184 187 188 212 228 223 218 202 186 186 181 183 191 195 195 194 187 189 191 182 177 177 173 173 178 188 192 190 196 197 190 189 187
337 344 346 348 353 359 4 5 7 19 46 119 181 202 195 202 242 277 275 239 207 212 190 171 166 155 138 130 135 145 156 182 180 166 155 160 173 178 184 187 186 191 189 182 180 187 204 210 203 201 198 191 188 191 190 197 211 222 241 247 223 203 184 171 184 190 184 194 205 198 196 193 192 195 187 180 178 176 176 178 185 188 187 193 195 194 191 187
340 344 346 350 355 359 15 26 29 46 64 79 85 299 246 239 256 275 282 276 227 217 193 180 167 156 149 144 158 160 163 187 189 169 166 172 181 183 192 195 189 193 189 181 178 182 205 212 201 194 196 196 196 195 198 216 232 243 250 246 217 198 187 174 176 184 188 198 210 201 199 202 201 199 193 186 181 178 179 180 181 184 184 188 190 192 193 190
342 345 348 351 355 5 51 57 56 66 69 74 66 23 355 309 284 273 275 284 267 219 195 184 159 152 153 140 163 169 169 192 192 174 176 179 181 183 192 196 191 192 188 183 180 189 202 197 192 192 183 192 202 205 211 226 238 246 246 243 215 196 196 196 178 170 181 194 199 190 192 200 203 202 197 192 186 181 181 182 182 183 184 187 191 192 194 196
344 346 349 350 352 6 91 102 77 69 71 83 82 29 12 8 330 302 298 315 323 113 167 175 159 151 128 106 151 166 168 193 191 182 184 183 184 180 173 183 192 184 181 183 184 201 200 168 170 192 180 187 200 208 212 220 237 245 241 242 218 196 194 198 178 166 174 184 179 173 171 188 198 202 198 197 193 185 182 185 187 187 187 189 192 192 193 198
344 346 349 350 352 345 156 145 121 66 53 31 69 97 36 27 25 23 9 360 61 117 143 166 162 154 127 130 161 168 177 201 188 187 195 188 186 177 166 179 190 174 166 174 191 213 199 162 168 192 193 192 199 208 205 209 240 247 240 236 214 199 192 184 175 170 174 177 169 166 151 177 194 200 196 196 196 189 184 186 189 189 190 191 191 192 192 195
346 346 348 350 350 327 175 180 215 246 360 358 359 53 50 27 21 32 29 11 74 117 131 168 170 173 165 158 167 176 188 197 186 192 205 194 181 176 176 184 189 180 168 175 207 219 200 182 187 197 203 206 212 213 198 206 237 239 244 229 197 193 192 185 180 174 173 165 166 173 173 167 179 191 193 193 195 195 191 188 189 190 190 191 192 192 192 194
350 347 350 350 344 291 205 227 256 275 302 12 9 36 51 38 27 50 59 37 82 114 123 173 176 190 193 177 182 184 164 171 191 195 198 195 183 181 184 186 193 195 187 202 219 214 199 196 198 203 212 216 216 209 194 206 230 233 250 225 193 192 189 178 172 167 161 160 171 186 192 165 167 181 190 192 194 197 195 193 193 194 193 192 192 193 192 193
358 354 353 353 343 319 262 285 313 313 318 84 112 117 103 121 100 46 35 73 95 113 154 173 177 196 189 181 187 181 160 177 206 192 183 190 189 191 194 191 199 208 202 216 225 220 210 201 199 209 218 217 209 201 197 206 222 230 217 178 175 181 174 166 167 168 159 167 187 191 186 173 169 182 186 188 194 198 196 197 198 197 196 195 193 193 191 192
7 9 6 6 1 348 320 341 358 355 51 122 123 129 130 123 84 38 31 70 82 101 151 177 195 210 184 179 186 188 189 215 242 191 183 189 189 195 207 204 210 227 220 218 223 221 211 201 207 217 214 211 209 208 213 218 223 214 178 158 155 167 169 165 172 176 158 195 212 197 189 195 183 185 189 188 198 201 196 197 199 198 199 198 195 192 189 192
24 31 26 22 21 19 32 61 70 88 116 121 114 121 134 112 73 63 63 48 36 152 191 200 204 208 196 186 191 200 204 217 225 189 182 188 193 201 213 215 219 238 231 217 216 215 210 208 217 218 211 207 212 219 226 224 214 200 187 178 162 162 171 168 172 178 161 235 229 199 192 203 203 191 193 190 197 200 197 198 198 199 202 201 198 194 190 192
48 52 51 45 47 51 74 103 106 101 102 107 114 122 124 101 57 33 28 41 286 303 284 228 187 189 191 189 196 202 201 201 192 183 183 192 200 206 213 214 217 232 225 213 214 217 218 220 222 216 212 211 213 219 221 217 213 205 203 201 171 152 165 164 164 182 195 264 245 197 187 192 202 191 189 186 183 185 193 201 202 205 204 200 198 195 191 193
74 75 70 60 65 76 95 109 103 91 86 90 106 101 86 72 29 4 2 18 342 342 323 175 172 176 177 183 190 189 190 196 185 182 186 195 202 210 213 210 208 210 210 209 221 233 225 221 220 213 211 211 212 213 208 205 212 214 217 218 186 155 152 162 168 195 208 268 186 182 184 177 141 160 171 185 187 183 189 199 202 204 202 197 196 193 190 192
97 93 84 75 77 84 100 109 97 79 70 72 82 69 53 36 16 2 353 352 349 350 326 192 179 163 175 191 189 185 195 203 194 189 187 191 202 212 211 205 200 206 226 239 261 264 231 211 207 205 208 210 209 207 200 198 208 212 218 223 190 170 173 176 180 183 146 133 149 168 179 172 148 148 163 180 190 193 191 192 194 196 197 195 194 194 192 191
107 104 99 90 88 89 98 103 87 62 49 54 68 57 38 15 8 10 2 353 354 359 354 197 174 156 175 192 190 193 203 196 191 192 194 196 199 208 212 210 208 219 239 253 284 283 228 206 193 196 204 205 202 197 194 200 211 206 206 208 186 171 177 183 190 178 145 134 140 143 149 161 156 152 163 174 185 194 192 191 192 193 196 197 196 197 196 194
112 103 100 96 95 95 96 88 58 41 50 65 65 50 29 6 356 358 352 345 352 3 32 149 160 163 174 187 195 210 212 199 192 194 200 201 195 206 214 213 219 231 238 240 259 265 213 199 187 192 198 198 198 192 194 206 212 204 207 204 179 163 178 187 163 158 146 125 95 114 129 151 154 153 166 174 181 188 187 188 193 195 197 200 200 198 198 197
131 107 92 97 102 92 89 88 71 77 125 86 58 39 21 9 2 357 350 351 6 4 23 77 105 161 178 191 210 224 212 208 207 205 199 191 170 145 156 125 145 201 204 217 234 216 193 188 182 192 197 196 197 189 193 211 209 190 199 202 192 188 216 216 123 132 130 89 99 134 136 152 155 154 169 177 182 188 189 186 189 196 198 200 200 198 197 199
144 112 87 94 100 86 83 89 89 100 106 67 42 25 9 4 13 9 359 10 19 12 34 50 50 80 126 158 110 94 162 122 36 195 185 163 126 101 115 116 123 152 160 180 191 170 174 173 177 193 198 191 191 186 191 205 209 175 167 184 207 210 211 194 160 150 119 85 141 131 131 163 173 162 169 178 181 186 189 185 183 188 194 199 201 198 197 199
133 122 103 100 95 77 66 68 68 64 55 38 28 22 8 5 31 28 18 41 21 21 47 51 43 65 84 115 80 67 84 65 42 58 82 104 112 95 102 118 131 136 131 152 161 144 141 145 158 185 191 179 176 185 194 196 201 196 173 179 228 234 227 256 220 165 143 135 167 144 99 196 176 163 170 178 177 180 183 182 181 180 187 198 201 201 200 201
133 131 127 112 94 55 39 47 45 32 36 41 19 13 18 22 36 26 9 14 11 12 39 55 67 78 83 107 72 65 77 76 47 49 56 62 70 71 110 122 137 144 111 124 141 103 100 136 135 156 179 178 172 184 197 197 202 213 195 195 226 243 246 263 279 175 150 143 139 135 357 198 171 165 171 174 175 181 181 180 181 175 178 189 196 200 203 203
131 122 131 129 109 25 357 12 23 15 21 34 352 355 52 38 17 18 22 38 30 18 31 59 69 56 54 113 78 73 83 85 65 40 24 341 27 20 6 51 64 173 142 147 149 71 71 126 138 145 166 172 168 178 197 205 211 217 209 214 253 273 260 245 269 171 158 158 162 160 140 168 173 171 172 172 174 182 184 184 185 175 170 180 187 191 197 199
124 123 137 132 100 92 306 326 357 354 349 354 346 14 78 28 6 19 40 49 56 51 54 63 55 20 6 61 94 103 103 101 97 76 291 260 296 325 328 346 356 8 153 161 123 91 73 108 159 172 175 182 186 190 203 221 223 219 217 225 321 271 249 241 217 165 147 150 158 148 118 157 175 172 169 171 175 182 187 195 199 189 175 183 193 190 190 194
126 128 139 135 111 131 219 316 353 340 334 12 49 86 72 28 20 48 57 53 51 23 54 65 47 5 353 155 144 134 126 113 101 86 88 209 251 282 296 309 332 353 205 194 121 128 97 54 158 166 167 188 204 206 210 223 221 217 217 215 44 189 202 219 202 172 144 139 150 134 95 162 167 163 166 171 178 187 196 203 210 208 193 193 203 199 195 197
135 135 141 163 176 154 106 65 39 16 349 62 75 126 114 89 81 73 74 65 43 20 75 73 48 360 42 127 122 102 108 164 159 125 90 180 243 280 289 300 324 337 180 177 177 175 108 25 49 143 141 179 200 202 213 213 201 200 200 173 50 189 168 127 166 169 145 147 157 138 113 163 162 159 168 172 172 176 187 198 208 216 209 205 206 199 197 200
148 144 126 130 173 167 54 18 50 19 339 338 28 291 195 108 108 87 76 58 44 68 96 90 86 78 93 103 95 84 141 150 145 145 134 164 275 307 300 303 338 103 157 151 169 165 100 59 73 104 110 120 128 113 113 170 183 183 154 121 142 174 158 138 160 162 141 152 162 143 136 158 164 163 169 177 179 176 178 184 189 206 211 211 210 204 200 200
154 157 136 98 173 193 331 341 253 336 324 322 58 110 148 85 93 97 76 71 75 84 103 114 112 105 103 106 96 154 154 137 116 133 140 79 36 29 80 111 117 147 148 144 153 148 108 90 83 83 92 95 81 72 78 118 150 140 120 121 152 154 151 157 164 161 150 151 158 153 152 158 162 165 171 177 176 172 175 178 178 192 202 207 210 210 207 203
148 163 151 111 140 181 101 73 48 339 354 100 95 134 141 17 29 109 95 119 100 78 99 128 127 102 104 128 126 134 149 138 100 95 90 78 82 87 90 90 123 174 152 145 151 152 127 116 104 89 91 88 75 79 92 104 103 110 127 135 127 122 132 142 142 152 157 150 146 158 162 160 160 167 172 172 169 167 168 174 175 179 192 200 203 208 211 209
144 148 134 108 124 162 149 95 63 35 96 115 126 149 160 274 157 108 98 146 125 97 123 131 154 192 151 150 134 120 130 128 110 94 81 88 103 102 95 98 152 187 164 154 150 151 144 130 127 120 102 98 93 87 86 93 98 102 112 118 116 120 128 129 126 138 159 162 157 161 163 160 160 167 171 172 176 174 166 170 171 164 177 192 193 200 209 211
155 140 131 129 131 132 125 105 75 58 102 121 110 94 101 150 147 107 99 116 95 106 135 113 115 180 182 185 162 128 111 116 122 109 73 71 106 116 104 91 80 162 179 172 153 142 147 133 125 124 108 112 123 92 72 82 99 98 93 90 99 115 120 123 131 135 150 171 164 161 158 154 157 165 168 167 172 171 168 176 179 170 173 184 186 186 192 200
178 155 155 159 140 120 103 107 111 80 136 140 113 90 110 150 157 135 121 113 96 103 129 98 127 138 139 173 172 153 132 120 129 129 74 63 104 123 115 84 59 29 188 187 175 146 137 131 122 125 117 118 129 97 72 73 94 96 88 83 94 110 114 122 137 145 148 152 155 156 152 149 155 166 168 166 172 178 183 192 189 179 175 177 181 180 180 185
191 175 169 163 153 141 110 91 153 152 150 137 115 116 134 147 162 169 142 108 97 99 95 99 142 144 139 162 172 167 168 167 156 156 161 78 110 123 137 108 60 23 64 178 194 191 128 138 148 139 123 110 107 100 77 61 85 95 87 81 91 106 116 125 131 140 155 154 154 157 156 154 161 171 171 169 178 190 201 206 190 171 166 168 172 179 186 190
198 182 165 151 153 147 102 87 180 166 149 134 121 132 136 136 162 183 171 141 123 117 112 116 148 164 165 180 180 176 183 190 181 171 187 193 131 120 123 61 4 15 53 128 192 207 213 197 191 162 129 106 102 107 91 69 81 81 71 77 95 111 125 134 132 125 150 161 163 167 169 165 168 176 176 174 183 199 210 213 190 147 152 162 167 174 181 186
Height
3142 3141 3141 3140 3139 3139 3139 3139 3138 3138 3137 3137 3137 3137 3137 3137 3137 3137 3137 3137 3138 3138 3139 3139 3140 3140 3141 3142 3143 3144 3145 3146 3147 3149 3150 3151 3152 3154 3155 3156 3157 3157 3158 3158 3160 3161 3162 3163 3164 3165 3167 3168 3169 3169 3169 3169 3169 3171 3171 3171 3170 3170 3168 3167 3167 3169 3171 3173 3175 3178 3180 3181 3182 3183 3184 3185 3188 3189 3190 3192 3193 3194 3195 3196 3196 3196 3197 3199
3141 3141 3140 3139 3139 3138 3138 3137 3137 3137 3136 3136 3136 3136 3136 3136 3136 3136 3136 3136 3136 3137 3137 3138 3139 3139 3140 3141 3141 3142 3143 3145 3146 3147 3148 3149 3151 3152 3154 3155 3156 3157 3157 3158 3159 3160 3161 3163 3164 3165 3167 3168 3168 3169 3169 3169 3170 3171 3172 3171 3171 3171 3170 3169 3169 3170 3172 3174 3175 3178 3181 3182 3183 3183 3184 3185 3187 3189 3189 3191 3192 3193 3194 3195 3196 3197 3198 3199
3141 3140 3139 3138 3138 3137 3137 3136 3136 3135 3135 3134 3134 3134 3134 3134 3134 3134 3134 3134 3135 3135 3135 3136 3137 3138 3139 3139 3140 3141 3142 3143 3144 3146 3147 3148 3149 3151 3152 3154 3155 3156 3157 3157 3158 3160 3161 3162 3163 3165 3167 3168 3168 3168 3169 3170 3170 3171 3172 3171 3171 3171 3171 3171 3171 3172 3173 3175 3176 3177 3181 3183 3183 3183 3184 3185 3187 3188 3188 3189 3190 3191 3193 3194 3195 3197 3198 3200
3140 3140 3139 3138 3137 3136 3136 3135 3135 3134 3134 3133 3133 3133 3133 3133 3133 3133 3133 3133 3134 3134 3134 3134 3135 3136 3137 3138 3139 3139 3140 3142 3143 3144 3145 3146 3148 3149 3151 3153 3154 3155 3156 3157 3158 3158 3159 3160 3162 3164 3166 3167 3167 3168 3168 3169 3171 3172 3172 3172 3172 3171 3171 3172 3172 3173 3174 3176 3177 3178 3181 3183 3182 3183 3185 3185 3186 3188 3188 3188 3190 3191 3192 3193 3195 3197 3198 3200
3140 3139 3138 3137 3136 3135 3135 3134 3134 3133 3133 3132 3132 3132 3131 3131 3131 3131 3131 3131 3132 3133 3133 3133 3133 3135 3136 3137 3138 3138 3139 3140 3141 3142 3144 3145 3146 3148 3149 3151 3153 3154 3155 3156 3157 3157 3158 3159 3160 3162 3164 3165 3166 3168 3168 3169 3171 3172 3172 3172 3172 3171 3172 3172 3173 3173 3174 3176 3178 3179 3181 3182 3182 3183 3185 3186 3186 3187 3188 3189 3191 3193 3194 3194 3195 3197 3199 3200
3140 3139 3138 3137 3136 3135 3134 3133 3133 3132 3132 3131 3131 3130 3130 3130 3130 3129 3129 3130 3130 3131 3131 3132 3132 3133 3134 3135 3136 3137 3139 3139 3140 3141 3143 3144 3145 3147 3148 3150 3151 3153 3154 3155 3156 3157 3158 3159 3160 3161 3162 3164 3166 3167 3168 3169 3171 3172 3172 3173 3173 3172 3172 3173 3173 3173 3174 3176 3177 3179 3181 3182 3183 3184 3186 3188 3188 3187 3188 3189 3191 3194 3196 3196 3197 3198 3199 3201
3139 3138 3137 3136 3135 3134 3133 3132 3131 3131 3130 3130 3129 3129 3129 3128 3128 3128 3128 3128 3129 3129 3130 3130 3131 3132 3133 3134 3135 3136 3137 3138 3139 3140 3142 3143 3144 3145 3147 3149 3150 3152 3154 3155 3156 3157 3158 3160 3160 3161 3162 3165 3167 3168 3168 3170 3171 3172 3172 3173 3173 3173 3172 3173 3174 3173 3174 3176 3177 3179 3181 3183 3184 3185 3187 3188 3188 3188 3189 3190 3192 3194 3196 3198 3199 3200 3201 3202
3138 3137 3136 3135 3134 3133 3132 3132 3131 3130 3129 3129 3128 3128 3127 3127 3127 3126 3126 3127 3127 3128 3128 3129 3129 3130 3131 3133 3134 3135 3136 3137 3139 3139 3140 3142 3143 3144 3146 3147 3149 3152 3153 3154 3156 3156 3158 3160 3161 3161 3163 3165 3167 3168 3169 3171 3171 3172 3173 3173 3173 3173 3172 3172 3173 3173 3173 3175 3177 3178 3180 3182 3184 3185 3186 3187 3188 3189 3190 3191 3193 3194 3196 3198 3200 3201 3202 3203
3137 3136 3135 3134 3133 3132 3131 3131 3130 3129 3128 3127 3127 3126 3126 3125 3125 3125 3125 3125 3125 3126 3126 3127 3128 3129 3130 3132 3133 3134 3135 3136 3138 3139 3140 3141 3142 3143 3145 3147 3149 3151 3152 3153 3155 3155 3158 3160 3161 3162 3164 3166 3168 3169 3170 3170 3171 3172 3173 3173 3173 3173 3172 3172 3172 3171 3171 3173 3175 3177 3179 3181 3183 3185 3186 3187 3188 3190 3191 3192 3193 3195 3196 3198 3200 3202 3203 3204
3136 3135 3134 3133 3132 3131 3130 3130 3129 3128 3127 3126 3125 3125 3125 3124 3124 3123 3123 3124 3124 3124 3124 3125 3126 3127 3129 3130 3131 3133 3134 3135 3136 3138 3139 3140 3141 3142 3144 3146 3148 3150 3151 3153 3154 3155 3158 3161 3161 3161 3163 3165 3167 3169 3170 3170 3171 3172 3172 3172 3173 3173 3173 3174 3173 3172 3171 3172 3175 3176 3178 3180 3183 3185 3186 3187 3189 3190 3192 3193 3194 3195 3196 3198 3200 3202 3204 3205
3135 3134 3133 3132 3131 3130 3129 3128 3128 3127 3126 3125 3124 3124 3123 3123 3122 3122 3122 3122 3122 3122 3123 3123 3125 3126 3127 3128 3130 3132 3132 3133 3135 3136 3138 3139 3140 3141 3143 3145 3147 3149 3150 3152 3153 3155 3159 3161 3160 3161 3162 3164 3167 3168 3169 3169 3170 3171 3171 3172 3173 3173 3174 3174 3174 3175 3174 3172 3174 3176 3177 3179 3182 3184 3185 3187 3189 3191 3192 3194 3195 3196 3197 3198 3200 3202 3204 3205
3134 3132 3131 3130 3130 3129 3128 3127 3126 3126 3125 3124 3123 3122 3122 3121 3121 3121 3121 3121 3120 3121 3121 3122 3123 3124 3125 3127 3128 3129 3130 3131 3133 3134 3136 3137 3139 3140 3142 3144 3146 3148 3150 3152 3153 3155 3158 3159 3159 3160 3161 3163 3165 3167 3167 3167 3169 3170 3171 3172 3172 3173 3173 3173 3173 3175 3175 3172 3172 3174 3176 3179 3180 3182 3185 3187 3189 3191 3193 3194 3195 3197 3198 3199 3201 3203 3204 3206
3132 3131 3130 3129 3128 3127 3126 3126 3125 3124 3123 3123 3122 3121 3120 3120 3119 3119 3119 3119 3119 3119 3119 3120 3121 3122 3124 3125 3126 3126 3128 3130 3132 3133 3134 3135 3138 3140 3141 3143 3145 3147 3149 3151 3153 3155 3157 3157 3157 3159 3160 3161 3164 3167 3166 3167 3169 3170 3171 3172 3171 3173 3173 3174 3174 3175 3177 3174 3172 3173 3175 3178 3180 3182 3184 3187 3189 3191 3193 3195 3196 3197 3199 3200 3202 3203 3205 3206
3131 3130 3128 3127 3126 3126 3125 3124 3123 3123 3122 3121 3120 3120 3119 3119 3118 3118 3118 3118 3118 3118 3118 3119 3120 3121 3123 3124 3124 3125 3127 3130 3131 3132 3132 3134 3136 3138 3140 3142 3143 3145 3148 3151 3152 3154 3155 3156 3156 3157 3158 3161 3163 3166 3166 3167 3168 3170 3171 3171 3171 3172 3173 3173 3174 3175 3177 3175 3173 3174 3177 3178 3180 3182 3184 3187 3189 3191 3193 3195 3197 3198 3199 3200 3202 3204 3205 3206
3129 3128 3127 3126 3125 3124 3123 3122 3121 3121 3120 3120 3119 3118 3118 3117 3117 3116 3116 3116 3116 3116 3117 3118 3119 3120 3122 3123 3123 3124 3126 3128 3131 3131 3132 3133 3135 3137 3139 3141 3142 3144 3147 3150 3152 3153 3154 3154 3155 3156 3157 3160 3162 3165 3166 3166 3167 3169 3170 3171 3171 3172 3173 3173 3173 3174 3176 3175 3174 3176 3178 3179 3181 3182 3184 3186 3189 3192 3193 3195 3197 3198 3199 3201 3202 3204 3205 3207
3127 3126 3125 3124 3123 3122 3121 3120 3120 3119 3118 3118 3117 3117 3116 3116 3116 3115 3115 3115 3115 3115 3116 3117 3118 3120 3121 3122 3123 3124 3125 3126 3129 3130 3131 3133 3135 3137 3139 3140 3142 3144 3147 3149 3151 3152 3152 3153 3154 3155 3156 3159 3161 3163 3165 3166 3167 3168 3169 3169 3170 3171 3172 3173 3173 3174 3175 3175 3175 3176 3178 3180 3181 3183 3184 3186 3189 3191 3193 3195 3197 3198 3200 3201 3202 3204 3205 3207
3125 3124 3123 3122 3121 3120 3119 3119 3118 3118 3117 3116 3115 3115 3115 3115 3114 3114 3114 3114 3114 3114 3115 3116 3117 3119 3120 3122 3123 3124 3125 3126 3128 3129 3130 3132 3134 3136 3138 3139 3141 3143 3146 3148 3149 3150 3151 3152 3153 3154 3156 3157 3160 3161 3162 3164 3165 3166 3167 3168 3169 3170 3171 3171 3172 3173 3174 3175 3176 3176 3178 3179 3181 3182 3185 3187 3188 3191 3193 3195 3197 3198 3200 3201 3203 3204 3206 3207
3124 3122 3121 3120 3120 3119 3118 3117 3116 3116 3115 3115 3114 3114 3113 3113 3113 3112 3112 3112 3113 3113 3114 3116 3117 3118 3119 3121 3122 3124 3125 3125 3127 3129 3130 3131 3133 3135 3137 3139 3141 3143 3145 3146 3148 3149 3150 3151 3152 3154 3155 3156 3158 3159 3159 3161 3162 3164 3165 3166 3168 3170 3170 3170 3170 3171 3172 3174 3176 3177 3178 3179 3181 3182 3184 3187 3188 3190 3193 3195 3197 3198 3200 3202 3203 3204 3207 3208
3122 3121 3120 3119 3118 3117 3117 3116 3115 3114 3113 3113 3113 3112 3112 3112 3112 3111 3111 3111 3112 3112 3113 3114 3115 3117 3118 3119 3121 3123 3125 3125 3126 3128 3129 3131 3132 3134 3137 3140 3141 3142 3143 3145 3147 3148 3149 3151 3152 3152 3153 3154 3156 3157 3158 3161 3163 3164 3166 3166 3167 3168 3169 3170 3170 3171 3172 3173 3175 3176 3177 3179 3180 3181 3183 3186 3188 3190 3192 3195 3196 3198 3200 3202 3203 3205 3207 3208
3121 3120 3119 3118 3117 3116 3115 3114 3113 3113 3112 3112 3112 3111 3111 3112 3111 3110 3110 3110 3110 3111 3112 3113 3114 3116 3117 3118 3119 3121 3124 3125 3126 3127 3129 3130 3132 3133 3136 3139 3140 3141 3142 3144 3146 3147 3149 3149 3150 3151 3152 3153 3155 3157 3159 3161 3163 3164 3166 3167 3167 3168 3169 3170 3171 3171 3172 3173 3174 3175 3177 3179 3180 3181 3183 3185 3187 3189 3192 3194 3196 3198 3200 3202 3203 3205 3207 3208
3120 3119 3118 3117 3116 3115 3114 3113 3113 3112 3111 3111 3111 3111 3111 3111 3111 3109 3109 3109 3109 3110 3111 3113 3114 3115 3116 3118 3118 3119 3122 3124 3126 3127 3128 3130 3132 3133 3135 3137 3138 3139 3140 3143 3146 3147 3147 3147 3148 3151 3153 3154 3155 3157 3159 3161 3162 3164 3166 3167 3167 3168 3170 3171 3172 3172 3173 3173 3173 3174 3176 3178 3180 3180 3181 3183 3186 3188 3191 3193 3195 3197 3200 3202 3203 3205 3207 3208
3119 3118 3117 3116 3115 3115 3114 3113 3112 3111 3111 3110 3110 3110 3111 3111 3110 3109 3109 3109 3109 3109 3110 3112 3113 3114 3116 3117 3118 3118 3120 3123 3125 3126 3128 3129 3131 3133 3134 3136 3137 3138 3140 3142 3144 3145 3145 3145 3147 3150 3153 3154 3155 3157 3159 3159 3160 3162 3165 3167 3167 3167 3169 3171 3172 3172 3173 3173 3173 3174 3175 3177 3179 3179 3180 3182 3184 3187 3191 3192 3194 3197 3199 3201 3203 3204 3207 3208
3118 3117 3116 3115 3115 3114 3113 3112 3112 3111 3111 3111 3111 3111 3111 3111 3110 3109 3109 3109 3109 3109 3110 3111 3112 3114 3116 3116 3118 3118 3119 3122 3124 3126 3127 3129 3130 3132 3133 3135 3136 3138 3140 3141 3142 3143 3143 3144 3147 3150 3151 3152 3153 3155 3158 3158 3158 3160 3163 3165 3165 3165 3167 3169 3169 3171 3173 3173 3174 3174 3175 3176 3178 3179 3181 3182 3183 3185 3189 3192 3193 3195 3198 3200 3202 3204 3206 3207
3117 3116 3115 3115 3114 3114 3113 3112 3112 3111 3111 3111 3111 3111 3110 3110 3110 3109 3109 3109 3109 3109 3109 3111 3112 3114 3115 3115 3117 3118 3119 3122 3124 3125 3126 3128 3130 3131 3133 3135 3136 3137 3139 3140 3141 3141 3142 3143 3147 3149 3149 3151 3152 3154 3156 3156 3156 3158 3161 3163 3163 3163 3164 3165 3167 3169 3172 3173 3173 3174 3174 3175 3176 3178 3180 3182 3183 3183 3186 3190 3192 3194 3197 3199 3201 3203 3205 3206
3116 3115 3115 3114 3114 3113 3113 3112 3111 3111 3111 3110 3110 3110 3110 3110 3109 3109 3109 3108 3108 3109 3109 3111 3113 3114 3114 3115 3117 3119 3120 3122 3124 3125 3126 3127 3129 3131 3133 3134 3135 3136 3137 3140 3141 3141 3141 3143 3146 3148 3149 3150 3151 3152 3154 3155 3155 3156 3158 3160 3161 3162 3164 3164 3165 3167 3169 3171 3171 3172 3173 3173 3174 3176 3178 3180 3182 3184 3186 3189 3191 3193 3195 3198 3200 3202 3204 3206
3116 3115 3114 3114 3113 3113 3112 3112 3111 3111 3111 3110 3109 3109 3109 3109 3108 3109 3109 3108 3108 3109 3109 3111 3113 3114 3114 3115 3117 3120 3121 3122 3123 3125 3126 3128 3129 3130 3132 3133 3135 3136 3137 3140 3142 3141 3141 3142 3143 3146 3148 3149 3150 3150 3152 3154 3155 3155 3155 3158 3159 3161 3162 3163 3163 3165 3167 3168 3169 3171 3172 3172 3172 3174 3177 3179 3182 3184 3185 3186 3189 3192 3194 3197 3199 3201 3203 3205
3115 3114 3113 3113 3113 3112 3112 3112 3111 3111 3110 3110 3110 3109 3109 3109 3109 3109 3109 3109 3109 3109 3110 3111 3113 3114 3115 3116 3118 3119 3121 3122 3123 3124 3126 3128 3129 3130 3131 3132 3134 3136 3138 3140 3140 3139 3139 3141 3142 3144 3146 3148 3149 3149 3150 3153 3154 3154 3154 3156 3157 3158 3160 3161 3162 3164 3165 3167 3168 3170 3170 3171 3172 3174 3176 3178 3181 3183 3184 3185 3188 3190 3192 3195 3198 3200 3203 3204
3114 3114 3113 3113 3112 3112 3112 3111 3111 3110 3110 3110 3110 3109 3109 3109 3109 3109 3109 3110 3110 3109 3110 3112 3113 3114 3115 3116 3118 3119 3120 3121 3122 3123 3125 3128 3129 3130 3130 3131 3133 3135 3137 3139 3138 3137 3139 3140 3140 3142 3144 3146 3147 3147 3149 3152 3153 3153 3154 3156 3156 3157 3159 3159 3161 3164 3166 3167 3168 3169 3169 3170 3173 3174 3175 3177 3179 3181 3182 3184 3186 3189 3191 3194 3197 3199 3202 3204
3114 3113 3113 3112 3112 3112 3111 3111 3110 3110 3110 3110 3109 3109 3109 3109 3110 3110 3109 3110 3110 3110 3111 3112 3113 3114 3114 3116 3117 3118 3119 3121 3122 3123 3125 3127 3129 3129 3130 3131 3132 3134 3136 3137 3136 3136 3137 3139 3140 3142 3143 3144 3145 3146 3148 3151 3152 3153 3155 3156 3157 3160 3161 3160 3161 3164 3166 3167 3167 3167 3168 3170 3172 3173 3173 3175 3177 3178 3180 3183 3185 3188 3190 3193 3196 3198 3201 3203
3114 3113 3113 3112 3112 3111 3111 3111 3111 3110 3110 3110 3109 3109 3109 3109 3110 3110 3110 3110 3110 3110 3111 3112 3113 3114 3114 3115 3117 3117 3118 3120 3122 3123 3124 3127 3128 3129 3129 3131 3132 3133 3134 3135 3134 3134 3135 3137 3140 3141 3142 3142 3144 3145 3147 3149 3151 3153 3155 3156 3157 3161 3162 3161 3162 3164 3167 3167 3165 3165 3167 3168 3171 3172 3171 3172 3174 3175 3178 3181 3184 3186 3189 3192 3194 3197 3200 3202
3113 3113 3113 3112 3112 3111 3111 3111 3111 3111 3111 3111 3110 3110 3110 3110 3110 3110 3111 3111 3111 3111 3111 3112 3112 3113 3114 3115 3116 3117 3119 3120 3121 3122 3124 3126 3127 3128 3129 3130 3131 3132 3132 3133 3132 3133 3134 3135 3137 3139 3140 3141 3143 3144 3146 3148 3149 3151 3154 3155 3157 3159 3161 3162 3163 3165 3168 3166 3162 3164 3167 3168 3169 3170 3170 3172 3173 3175 3177 3179 3182 3184 3186 3189 3192 3196 3198 3200
3113 3113 3113 3113 3112 3111 3111 3111 3112 3112 3112 3112 3112 3111 3111 3110 3110 3110 3110 3111 3111 3111 3111 3111 3112 3112 3114 3115 3116 3117 3119 3120 3121 3122 3124 3125 3126 3127 3128 3129 3130 3131 3131 3132 3132 3133 3134 3134 3135 3136 3138 3140 3142 3142 3144 3146 3147 3149 3151 3153 3155 3158 3160 3163 3164 3165 3166 3163 3160 3161 3165 3167 3168 3168 3170 3172 3173 3175 3177 3179 3181 3183 3185 3188 3191 3194 3197 3199
3113 3114 3113 3113 3113 3112 3112 3112 3113 3113 3113 3113 3113 3112 3111 3111 3111 3111 3111 3111 3111 3111 3110 3111 3111 3112 3113 3115 3116 3117 3119 3120 3121 3122 3123 3124 3125 3126 3127 3128 3130 3130 3130 3131 3132 3133 3133 3133 3133 3135 3136 3138 3140 3140 3141 3143 3144 3146 3148 3150 3152 3155 3159 3163 3163 3163 3163 3161 3160 3161 3164 3167 3168 3168 3169 3171 3173 3174 3176 3178 3181 3182 3183 3186 3189 3192 3195 3197
3114 3114 3114 3114 3114 3113 3113 3113 3114 3114 3114 3114 3114 3112 3111 3111 3112 3111 3111 3111 3111 3111 3110 3110 3111 3112 3113 3114 3116 3118 3119 3120 3120 3121 3123 3124 3125 3126 3127 3128 3128 3129 3130 3131 3131 3131 3131 3131 3131 3132 3134 3136 3138 3139 3140 3141 3142 3145 3146 3148 3149 3151 3155 3158 3158 3158 3159 3161 3162 3163 3165 3167 3167 3168 3169 3170 3172 3173 3174 3176 3179 3181 3182 3184 3188 3191 3192 3194
3114 3114 3114 3114 3114 3114 3114 3114 3114 3114 3114 3115 3114 3112 3112 3112 3112 3112 3111 3111 3111 3111 3110 3110 3111 3112 3113 3114 3116 3118 3119 3119 3120 3121 3122 3123 3125 3125 3126 3127 3128 3129 3130 3131 3130 3129 3129 3130 3130 3131 3132 3135 3137 3138 3139 3140 3141 3143 3145 3147 3148 3148 3150 3153 3154 3154 3156 3160 3163 3164 3165 3166 3166 3167 3169 3170 3171 3172 3174 3176 3178 3180 3181 3183 3186 3188 3190 3192
3114 3114 3114 3115 3115 3115 3115 3115 3115 3115 3115 3115 3114 3113 3112 3113 3113 3112 3112 3112 3111 3111 3110 3111 3112 3113 3113 3115 3116 3118 3119 3119 3120 3121 3122 3123 3125 3125 3126 3127 3127 3128 3129 3130 3129 3128 3128 3129 3129 3130 3132 3133 3135 3137 3139 3140 3140 3142 3144 3145 3146 3148 3149 3150 3152 3153 3154 3160 3165 3166 3166 3167 3167 3168 3170 3170 3171 3172 3173 3175 3176 3177 3179 3180 3183 3185 3187 3190
3114 3115 3115 3115 3116 3116 3116 3116 3116 3116 3116 3115 3114 3114 3114 3113 3113 3113 3113 3113 3112 3112 3111 3112 3113 3113 3114 3115 3117 3117 3118 3119 3120 3120 3121 3123 3124 3125 3125 3126 3126 3126 3128 3128 3128 3127 3127 3127 3128 3129 3131 3132 3133 3136 3138 3140 3140 3141 3142 3144 3145 3147 3148 3149 3152 3154 3156 3162 3167 3167 3167 3168 3168 3169 3170 3170 3170 3172 3173 3174 3176 3177 3177 3178 3180 3182 3185 3188
3114 3115 3116 3116 3117 3117 3117 3116 3116 3117 3116 3115 3114 3114 3114 3114 3114 3114 3114 3113 3112 3112 3111 3112 3113 3113 3113 3115 3117 3117 3116 3117 3119 3119 3120 3122 3124 3124 3124 3125 3125 3125 3126 3127 3126 3126 3126 3127 3127 3128 3130 3131 3132 3135 3137 3139 3140 3140 3141 3143 3144 3146 3147 3148 3151 3153 3156 3164 3168 3168 3168 3168 3168 3168 3169 3169 3170 3171 3172 3174 3176 3177 3177 3177 3178 3180 3183 3186
3114 3115 3116 3117 3117 3118 3118 3117 3117 3117 3116 3115 3115 3115 3115 3115 3115 3115 3114 3113 3113 3113 3112 3113 3113 3114 3114 3115 3117 3116 3114 3116 3119 3118 3119 3121 3123 3124 3123 3123 3124 3124 3125 3125 3125 3125 3125 3125 3126 3128 3129 3130 3132 3134 3136 3137 3139 3139 3141 3143 3144 3145 3146 3147 3148 3148 3152 3161 3166 3168 3169 3169 3168 3169 3169 3170 3170 3171 3172 3174 3175 3177 3177 3176 3177 3179 3182 3185
3115 3115 3116 3116 3117 3118 3118 3118 3118 3117 3117 3116 3116 3115 3115 3116 3116 3115 3115 3114 3114 3113 3113 3114 3113 3114 3115 3115 3116 3116 3114 3118 3121 3120 3121 3123 3123 3123 3123 3123 3124 3124 3124 3125 3124 3124 3124 3124 3125 3127 3128 3130 3131 3133 3135 3136 3138 3139 3140 3142 3144 3145 3145 3146 3148 3147 3148 3155 3161 3166 3170 3169 3168 3169 3170 3171 3171 3171 3172 3173 3173 3175 3176 3176 3176 3177 3179 3183
3115 3116 3116 3116 3117 3118 3118 3119 3119 3118 3118 3117 3117 3116 3116 3116 3116 3116 3116 3115 3115 3114 3114 3114 3114 3114 3115 3115 3116 3117 3116 3120 3123 3123 3123 3124 3122 3122 3123 3123 3124 3124 3125 3125 3124 3124 3124 3124 3125 3126 3127 3129 3131 3133 3135 3136 3138 3139 3140 3142 3143 3144 3145 3145 3147 3147 3146 3149 3153 3158 3164 3167 3167 3168 3170 3171 3171 3171 3173 3173 3174 3175 3176 3177 3177 3176 3178 3182
3115 3116 3116 3116 3116 3117 3118 3119 3119 3118 3118 3118 3118 3117 3116 3117 3117 3117 3117 3116 3116 3115 3115 3114 3114 3115 3115 3115 3117 3117 3117 3121 3124 3124 3124 3124 3123 3123 3123 3123 3124 3124 3124 3124 3124 3124 3124 3124 3125 3126 3127 3128 3130 3133 3135 3135 3137 3138 3140 3142 3142 3142 3143 3143 3145 3145 3145 3148 3150 3153 3159 3165 3168 3169 3170 3172 3172 3172 3173 3174 3175 3176 3177 3178 3178 3177 3178 3181
3116 3116 3117 3116 3117 3117 3118 3119 3118 3118 3118 3118 3118 3118 3118 3117 3117 3117 3117 3116 3116 3116 3115 3115 3115 3115 3115 3115 3116 3117 3118 3121 3124 3125 3125 3125 3125 3124 3123 3123 3124 3124 3124 3124 3124 3124 3125 3125 3126 3126 3127 3128 3130 3132 3134 3134 3136 3138 3140 3141 3142 3141 3141 3142 3142 3142 3144 3148 3150 3154 3161 3166 3168 3169 3170 3171 3172 3173 3173 3174 3174 3175 3177 3177 3177 3177 3178 3180
3116 3116 3117 3117 3117 3117 3118 3118 3118 3118 3119 3119 3119 3119 3118 3118 3118 3118 3117 3117 3117 3117 3117 3116 3116 3116 3115 3116 3117 3118 3120 3122 3124 3125 3125 3125 3125 3125 3124 3124 3124 3124 3124 3125 3125 3125 3125 3126 3126 3126 3128 3130 3131 3133 3134 3135 3136 3138 3139 3140 3140 3139 3139 3141 3142 3141 3144 3148 3149 3151 3159 3164 3166 3168 3170 3171 3172 3172 3172 3173 3173 3174 3175 3176 3176 3177 3178 3179
3116 3116 3117 3117 3117 3118 3118 3119 3119 3119 3119 3119 3119 3118 3118 3119 3119 3119 3118 3118 3118 3118 3118 3118 3118 3117 3117 3117 3118 3120 3122 3123 3125 3125 3125 3125 3126 3126 3125 3125 3125 3125 3125 3126 3126 3126 3126 3127 3127 3127 3129 3132 3134 3134 3135 3135 3136 3137 3138 3139 3140 3139 3138 3139 3141 3141 3143 3148 3149 3150 3155 3161 3165 3167 3168 3170 3170 3171 3172 3172 3172 3173 3174 3175 3176 3178 3179 3180
3115 3116 3116 3117 3117 3118 3119 3119 3119 3119 3119 3119 3119 3119 3119 3119 3119 3119 3119 3119 3119 3119 3119 3120 3119 3119 3119 3119 3120 3121 3123 3124 3125 3125 3125 3126 3126 3126 3126 3126 3125 3125 3125 3126 3127 3127 3127 3128 3129 3129 3130 3133 3134 3135 3134 3134 3135 3136 3138 3139 3139 3139 3138 3138 3140 3141 3142 3146 3150 3152 3153 3158 3163 3165 3166 3168 3169 3170 3171 3172 3172 3172 3173 3174 3175 3177 3178 3180
3115 3115 3116 3116 3117 3118 3119 3119 3119 3119 3119 3119 3119 3119 3119 3119 3119 3119 3119 3119 3119 3119 3119 3120 3120 3120 3120 3121 3122 3122 3123 3124 3124 3125 3126 3126 3126 3126 3126 3126 3125 3125 3126 3127 3127 3127 3128 3129 3130 3131 3131 3133 3134 3134 3134 3134 3135 3136 3137 3138 3138 3138 3139 3139 3139 3141 3142 3144 3150 3155 3154 3154 3160 3163 3165 3167 3168 3169 3171 3172 3172 3172 3172 3173 3174 3175 3177 3179
3115 3115 3116 3117 3117 3117 3118 3119 3119 3119 3119 3119 3119 3119 3120 3120 3120 3119 3120 3120 3119 3119 3120 3120 3120 3120 3120 3121 3122 3122 3123 3123 3124 3125 3126 3126 3126 3126 3126 3126 3126 3125 3126 3127 3127 3127 3129 3130 3131 3131 3132 3133 3134 3134 3134 3134 3135 3136 3137 3138 3139 3139 3140 3140 3141 3142 3144 3144 3147 3153 3155 3155 3158 3162 3164 3167 3168 3169 3171 3172 3172 3172 3173 3173 3174 3175 3176 3178
3115 3115 3116 3117 3117 3117 3118 3119 3119 3119 3119 3119 3120 3120 3119 3119 3120 3120 3120 3120 3119 3119 3119 3119 3120 3120 3120 3121 3122 3123 3124 3124 3124 3125 3126 3126 3126 3127 3127 3127 3126 3126 3126 3127 3127 3128 3130 3131 3131 3132 3132 3132 3133 3134 3134 3135 3135 3136 3137 3139 3139 3139 3140 3142 3143 3144 3146 3146 3147 3151 3156 3158 3160 3163 3165 3167 3168 3169 3171 3172 3172 3172 3173 3173 3174 3175 3176 3177
3115 3116 3116 3117 3117 3118 3118 3118 3118 3119 3119 3119 3120 3120 3119 3119 3120 3121 3121 3120 3120 3120 3119 3119 3119 3120 3120 3121 3123 3124 3124 3124 3125 3125 3126 3127 3127 3128 3128 3127 3127 3127 3127 3127 3128 3128 3130 3131 3132 3132 3132 3132 3133 3134 3135 3136 3136 3136 3137 3139 3140 3140 3141 3142 3144 3145 3146 3148 3151 3154 3158 3161 3163 3164 3165 3167 3168 3168 3170 3171 3171 3172 3173 3174 3175 3176 3176 3177
3115 3116 3116 3117 3118 3118 3118 3118 3119 3119 3119 3120 3119 3119 3120 3120 3120 3121 3121 3121 3121 3120 3119 3119 3120 3120 3121 3121 3122 3123 3124 3124 3125 3126 3127 3127 3128 3128 3128 3128 3128 3128 3128 3128 3128 3129 3130 3131 3131 3131 3132 3133 3133 3134 3135 3136 3137 3137 3138 3140 3141 3141 3142 3143 3145 3146 3146 3148 3152 3156 3157 3159 3161 3163 3165 3166 3167 3168 3169 3171 3172 3173 3174 3175 3176 3176 3177 3177
3114 3115 3116 3117 3118 3118 3118 3118 3119 3119 3120 3120 3120 3119 3120 3120 3121 3121 3122 3121 3121 3121 3121 3120 3121 3121 3121 3122 3123 3123 3124 3124 3125 3126 3127 3127 3128 3128 3129 3129 3129 3129 3129 3128 3129 3130 3131 3131 3131 3131 3132 3133 3134 3135 3135 3136 3137 3139 3139 3140 3142 3142 3143 3144 3145 3146 3147 3148 3151 3154 3156 3158 3160 3162 3163 3166 3167 3168 3169 3171 3172 3173 3174 3175 3176 3177 3177 3178